When you browse on this site, cookies collect data to enhance your experience and personalize the content and advertising you see.
Visit our Privacy Policy to learn more. By continuing to use the site, you agree to this use of cookies and data.
  • En España
  • Lista de países
  • Para 7 días
  • Temperatura del agua
  • El tiempo en el mapa
  • Informadores
  • user-avatar
    Iniciar sesión

    Tiempo cada hora Bolonia

    Hoy, 19 Noviembre, Martes

    Tiempo Temperatura Precipitaciones Viento Presión Humedad
    00:00 +9°C° 1 mm 2 mps 753 mmHg 95%
    01:00 +9°C° 1 mm 2 mps 753 mmHg 95%
    02:00 +9°C° 0.1 mm 2 mps 753 mmHg 95%
    03:00 +9°C° 0.1 mm 2 mps 752 mmHg 95%
    04:00 +9°C° 0.1 mm 2 mps 752 mmHg 95%
    05:00 +9°C° 0.3 mm 2 mps 752 mmHg 95%
    06:00 +10°C° 0.3 mm 3 mps 752 mmHg 95%
    07:00 +10°C° 0.3 mm 3 mps 752 mmHg 95%
    08:00 +10°C° 0.7 mm 3 mps 752 mmHg 94%
    09:00 +11°C° 0.7 mm 3 mps 753 mmHg 93%
    10:00 +11°C° 0.7 mm 3 mps 753 mmHg 92%
    11:00 +12°C° 0.2 mm 3 mps 753 mmHg 90%
    12:00 +12°C° 0.2 mm 3 mps 753 mmHg 88%
    13:00 +12°C° 0.2 mm 3 mps 753 mmHg 86%
    14:00 +13°C° 0.5 mm 2 mps 753 mmHg 88%
    15:00 +13°C° 0.5 mm 2 mps 753 mmHg 89%
    16:00 +13°C° 0.5 mm 2 mps 753 mmHg 90%
    17:00 +13°C° 0.1 mm 1 mps 753 mmHg 90%
    18:00 +12°C° 0.1 mm 1 mps 753 mmHg 90%
    19:00 +12°C° 0.1 mm 1 mps 753 mmHg 90%
    20:00 +12°C° 0 mm 1 mps 753 mmHg 91%
    21:00 +11°C° 0 mm 1 mps 753 mmHg 91%
    22:00 +11°C° 0 mm 1 mps 753 mmHg 91%
    23:00 +11°C° 0 mm 1 mps 753 mmHg 92%

    Mañana, 20 Noviembre, Miércoles

    Tiempo Temperatura Precipitaciones Viento Presión Humedad
    00:00 +11°C° 0 mm 1 mps 753 mmHg 92%
    01:00 +11°C° 0 mm 1 mps 753 mmHg 92%
    02:00 +10°C° 0 mm 1 mps 753 mmHg 92%
    03:00 +9°C° 0 mm 2 mps 752 mmHg 92%
    04:00 +9°C° 0 mm 2 mps 752 mmHg 93%
    05:00 +9°C° 0 mm 2 mps 752 mmHg 93%
    06:00 +9°C° 0 mm 2 mps 752 mmHg 93%
    07:00 +9°C° 0 mm 2 mps 752 mmHg 94%
    08:00 +10°C° 0 mm 2 mps 752 mmHg 91%
    09:00 +12°C° 0 mm 2 mps 752 mmHg 89%
    10:00 +12°C° 0 mm 2 mps 753 mmHg 86%
    11:00 +13°C° 0 mm 2 mps 752 mmHg 84%
    12:00 +14°C° 0 mm 2 mps 752 mmHg 81%
    13:00 +14°C° 0 mm 3 mps 752 mmHg 78%
    14:00 +14°C° 0 mm 2 mps 752 mmHg 80%
    15:00 +14°C° 0 mm 2 mps 752 mmHg 82%
    16:00 +13°C° 0 mm 1 mps 752 mmHg 84%
    17:00 +12°C° 0 mm 1 mps 752 mmHg 86%
    18:00 +12°C° 0 mm 1 mps 752 mmHg 88%
    19:00 +11°C° 0 mm 1 mps 753 mmHg 89%
    20:00 +10°C° 0 mm 2 mps 753 mmHg 89%
    21:00 +10°C° 0 mm 2 mps 753 mmHg 89%
    22:00 +9°C° 0 mm 2 mps 753 mmHg 90%
    23:00 +9°C° 0 mm 2 mps 753 mmHg 90%

    Pasado mañana, 21 Noviembre, Jueves

    Tiempo Temperatura Precipitaciones Viento Presión Humedad
    00:00 +10°C° 0 mm 1 mps 753 mmHg 90%
    01:00 +10°C° 0 mm 1 mps 753 mmHg 90%
    02:00 +10°C° 0 mm 1 mps 753 mmHg 90%
    03:00 +10°C° 0 mm 1 mps 753 mmHg 90%
    04:00 +10°C° 0 mm 1 mps 753 mmHg 90%
    05:00 +10°C° 0 mm 1 mps 752 mmHg 90%
    06:00 +10°C° 0 mm 1 mps 752 mmHg 89%
    07:00 +9°C° 0 mm 1 mps 752 mmHg 89%
    08:00 +10°C° 0 mm 1 mps 753 mmHg 86%
    09:00 +11°C° 0 mm 1 mps 753 mmHg 83%
    10:00 +12°C° 0 mm 1 mps 753 mmHg 80%
    11:00 +13°C° 0.1 mm 1 mps 753 mmHg 78%
    12:00 +13°C° 0.1 mm 1 mps 753 mmHg 76%
    13:00 +14°C° 0.1 mm 1 mps 753 mmHg 73%
    14:00 +13°C° 0.1 mm 1 mps 753 mmHg 76%
    15:00 +13°C° 0.1 mm 1 mps 753 mmHg 79%
    16:00 +13°C° 0.1 mm 1 mps 753 mmHg 82%
    17:00 +12°C° 0.1 mm 1 mps 753 mmHg 84%
    18:00 +11°C° 0.1 mm 1 mps 753 mmHg 86%
    19:00 +10°C° 0.1 mm 1 mps 753 mmHg 88%
    20:00 +10°C° 0 mm 1 mps 754 mmHg 88%
    21:00 +10°C° 0 mm 1 mps 754 mmHg 88%
    22:00 +10°C° 0 mm 1 mps 754 mmHg 88%
    23:00 +9°C° 0 mm 1 mps 754 mmHg 88%

    22 Noviembre, Viernes

    Tiempo Temperatura Precipitaciones Viento Presión Humedad
    00:00 +9°C° 0 mm 1 mps 754 mmHg 89%
    01:00 +9°C° 0 mm 1 mps 754 mmHg 89%
    02:00 +9°C° 0 mm 1 mps 754 mmHg 89%
    03:00 +9°C° 0 mm 1 mps 754 mmHg 89%
    04:00 +8°C° 0 mm 1 mps 754 mmHg 89%
    05:00 +7°C° 0 mm 0 mps 754 mmHg 90%
    06:00 +7°C° 0 mm 0 mps 754 mmHg 90%
    07:00 +7°C° 0 mm 0 mps 754 mmHg 90%
    08:00 +8°C° 0 mm 0 mps 754 mmHg 87%
    09:00 +9°C° 0 mm 0 mps 754 mmHg 84%
    10:00 +10°C° 0 mm 0 mps 754 mmHg 81%
    11:00 +12°C° 0 mm 1 mps 754 mmHg 79%
    12:00 +13°C° 0 mm 1 mps 754 mmHg 77%
    13:00 +14°C° 0 mm 2 mps 754 mmHg 74%
    14:00 +13°C° 0 mm 2 mps 753 mmHg 78%
    15:00 +13°C° 0 mm 2 mps 753 mmHg 81%
    16:00 +12°C° 0 mm 2 mps 753 mmHg 85%
    17:00 +12°C° 0 mm 2 mps 753 mmHg 86%
    18:00 +12°C° 0 mm 1 mps 753 mmHg 88%
    19:00 +11°C° 0 mm 1 mps 753 mmHg 89%
    20:00 +11°C° 0 mm 1 mps 753 mmHg 90%
    21:00 +11°C° 0 mm 1 mps 753 mmHg 90%
    22:00 +10°C° 0 mm 1 mps 753 mmHg 91%
    23:00 +10°C° 0 mm 1 mps 753 mmHg 91%

    23 Noviembre, Sábado

    Tiempo Temperatura Precipitaciones Viento Presión Humedad
    00:00 +10°C° 0 mm 1 mps 753 mmHg 91%
    01:00 +10°C° 0 mm 1 mps 752 mmHg 91%
    02:00 +10°C° 0 mm 1 mps 752 mmHg 91%
    03:00 +10°C° 0 mm 1 mps 752 mmHg 91%
    04:00 +10°C° 0 mm 1 mps 752 mmHg 91%
    05:00 +10°C° 0 mm 1 mps 751 mmHg 91%
    06:00 +10°C° 0 mm 1 mps 751 mmHg 90%
    07:00 +9°C° 0 mm 2 mps 751 mmHg 90%
    08:00 +10°C° 0 mm 2 mps 751 mmHg 87%
    09:00 +12°C° 0 mm 2 mps 751 mmHg 85%
    10:00 +12°C° 0 mm 3 mps 751 mmHg 82%
    11:00 +12°C° 0.1 mm 3 mps 750 mmHg 80%
    12:00 +13°C° 0.1 mm 4 mps 750 mmHg 78%
    13:00 +14°C° 0.1 mm 4 mps 749 mmHg 75%
    14:00 +14°C° 0.5 mm 4 mps 749 mmHg 77%
    15:00 +13°C° 0.5 mm 4 mps 748 mmHg 78%
    16:00 +13°C° 0.5 mm 5 mps 748 mmHg 79%
    17:00 +13°C° 0.7 mm 4 mps 748 mmHg 81%
    18:00 +12°C° 0.7 mm 4 mps 748 mmHg 84%
    19:00 +12°C° 0.7 mm 4 mps 747 mmHg 86%
    20:00 +12°C° 0.3 mm 4 mps 748 mmHg 87%
    21:00 +12°C° 0.3 mm 3 mps 748 mmHg 88%
    22:00 +12°C° 0.3 mm 3 mps 748 mmHg 89%
    23:00 +12°C° 0.2 mm 3 mps 748 mmHg 89%

    24 Noviembre, Domingo

    Tiempo Temperatura Precipitaciones Viento Presión Humedad
    00:00 +13°C° 0.2 mm 2 mps 748 mmHg 89%
    01:00 +13°C° 0.2 mm 2 mps 748 mmHg 90%
    02:00 +13°C° 0.3 mm 2 mps 748 mmHg 91%
    03:00 +13°C° 0.3 mm 2 mps 748 mmHg 92%
    04:00 +13°C° 0.3 mm 2 mps 749 mmHg 92%
    05:00 +13°C° 0 mm 2 mps 749 mmHg 93%
    06:00 +12°C° 0 mm 2 mps 750 mmHg 94%
    07:00 +12°C° 0 mm 2 mps 750 mmHg 94%
    08:00 +13°C° 0 mm 2 mps 751 mmHg 92%
    09:00 +13°C° 0 mm 2 mps 752 mmHg 90%
    10:00 +14°C° 0 mm 2 mps 752 mmHg 89%
    11:00 +13°C° 0 mm 3 mps 752 mmHg 87%
    12:00 +14°C° 0 mm 3 mps 753 mmHg 85%
    13:00 +14°C° 0 mm 3 mps 753 mmHg 83%
    14:00 +14°C° 0.1 mm 3 mps 753 mmHg 84%
    15:00 +14°C° 0.1 mm 3 mps 753 mmHg 86%
    16:00 +14°C° 0.1 mm 3 mps 753 mmHg 87%
    17:00 +14°C° 0 mm 2 mps 754 mmHg 89%
    18:00 +14°C° 0 mm 2 mps 754 mmHg 91%
    19:00 +13°C° 0 mm 1 mps 755 mmHg 93%
    20:00 +13°C° 0 mm 1 mps 755 mmHg 93%
    21:00 +13°C° 0 mm 1 mps 755 mmHg 93%
    22:00 +13°C° 0 mm 1 mps 756 mmHg 93%
    23:00 +13°C° 0 mm 1 mps 756 mmHg 93%
    Mostrar más